Regional Weather Roundup
Issued by NWS

Home | Current Version | Previous Version | Graphics & Text | Print | Product List | Glossary On
Versions: 1 2 3 4 5 6 7 8 9 10 11 12 13 14 15 16 17 18 19 20 21 22 23 24 25 26 27 28 29 30 31 32 33 34 35 36 37 38 39 40 41 42 43 44 45 46 47 48 49 50
000
ASUS43 KLOT 242008
RWRIL

ILLINOIS REGIONAL WEATHER ROUNDUP
NATIONAL WEATHER SERVICE CHICAGO/ROMEOVILLE IL
300 PM CDT SAT SEP 24 2016

NOTE: "FAIR" INDICATES FEW OR NO CLOUDS BELOW 12,000 FEET WITH NO
SIGNIFICANT WEATHER AND/OR OBSTRUCTIONS TO VISIBILITY.

* THESE STATIONS ARE NOT UNDER NWS QUALITY CONTROL. THEY ALSO MAY NOT
  REPORT WEATHER SUCH AS PRECIPITATION OR FOG.

ILZ001-002-007-009-015-016-024-242100-
NORTHWEST ILLINOIS

CITY           SKY/WX    TMP DP  RH WIND       PRES   REMARKS
MOLINE         SUNNY     81  70  69 E9        30.07F HX  84
STERLING*      MOSUNNY   75  67  76 E6        30.12F
SAVANNA*       CLOUDY    73  66  80 SE7       30.12F HAZE
$$

ILZ003-004-008-010-011-017-018-242100-
NORTH CENTRAL ILLINOIS

CITY           SKY/WX    TMP DP  RH WIND       PRES   REMARKS
ROCKFORD       PTSUNNY   75  64  68 E7        30.15F
FREEPORT*      CLOUDY    74  66  75 E7        30.15F
ROCHELLE*      PTSUNNY   77  66  68 E5        30.13F
DE KALB*       MOSUNNY   75  66  73 NE5       30.15F
$$

ILZ005-006-012>014-019>023-242100-
NORTHEAST ILLINOIS

CITY           SKY/WX    TMP DP  RH WIND       PRES   REMARKS
CHICAGO-OHARE  PTSUNNY   73  63  70 NE12      30.15F
CHICAGO-MIDWAY PTSUNNY   74  62  66 NE13      30.15F
AURORA         PTSUNNY   78  65  63 E8        30.14F HX  80
LANSING*       MOSUNNY   76  66  73 NE10      30.15S
JOLIET*        MOSUNNY   80  68  66 CALM      30.13F HX  83
WAUKEGAN       CLOUDY    68  62  81 E10       30.17F
DUPAGE AIRPORT SUNNY     74  63  68 NE9       30.14F
KANKAKEE*      SUNNY     82  67  61 NE6       30.12F HX  84
WHEELING       PTSUNNY   71  62  73 NE8       30.18S
MORRIS*        MOSUNNY   80  67  64 E5        30.11F HX  82
ROMEOVILLE*    PTSUNNY   78  69  72 NE7       30.13F HX  80
NORTHERLY ISL    N/A     71  62  73 NE10        N/A
$$

LMZ740>746-242100-
SOUTHERN LAKE MICHIGAN

STATION/POSITION SKY/WX   TEMP    WIND        PRES    VSBY  WAVE
                          AIR SEA DIR/SP/G                  HT/PER
                          (F)     (DEG/KT/KT) (MB)    (MI)  (FT/S)
SOUTHERN BUOY              67 72  100/ 12/ 14 1021.5F         2/ 4
WILMETTE HARBOR            66 66   90/  6/  8   N/A           3/ 5
HARRISON CRIB              68      50/ 10/ 11   N/A
BURNHAM HARBOR             70      40/ 11       N/A
CALUMET HARBOR             70      30/  9/ 12 1021.0F
BURNS HARBOR               70      40/ 12/ 13 1021.7F
MICHIGAN CITY              68      10/ 14/ 16   N/A
MICHIGAN CITY 6N           70 71   40/ 14/ 17   N/A           3/ 5
ST. JOSEPH                 72 71   80/  6/  8 1021.2F         1
$$

ILZ025>027-034>036-040-047-049-050-058-095>099-242100-
WEST-CENTRAL ILLINOIS

CITY           SKY/WX    TMP DP  RH WIND       PRES   REMARKS
QUINCY         MOSUNNY   87  62  43 S7        30.04F HX  87
GALESBURG*     MOSUNNY  N/A N/A N/A MISG        N/A
MACOMB*        PTSUNNY   87  63  44 S5        30.08F HX  88
JACKSONVILLE*  MOSUNNY   90  64  42 SE8       30.05F HX  91
PITTSFIELD*    SUNNY     88  66  47 S7        30.06F HX  91
$$

ILZ028>032-037-038-041>044-048-051>054-059>061-242100-
CENTRAL ILLINOIS

CITY           SKY/WX    TMP DP  RH WIND       PRES   REMARKS
PONTIAC        SUNNY     85  69  59 NE10      30.11F HX  89
BLOOMINGTON    MOSUNNY   87  66  49 VRB3      30.10F HX  89
DECATUR        SUNNY     89  64  43 CALM      30.07F HX  90
PEORIA         SUNNY     86  68  54 CALM      30.08F HX  89
LACON*         SUNNY     83  67  58 CALM      30.08F HAZE    HX  86
LINCOLN*       MOSUNNY   90  66  45 CALM      30.06F HX  92
SPRINGFIELD    SUNNY     89  63  41 VRB3      30.06F HX  90
TAYLORVILLE    SUNNY     89  61  38 CALM      30.07F HX  88
$$

ILZ033-039-045-046-055>057-062-063-242100-
EAST-CENTRAL ILLINOIS

CITY           SKY/WX    TMP DP  RH WIND       PRES   REMARKS
CHAMPAIGN      MOSUNNY   89  64  43 NE6       30.08F HX  90
RANTOUL*       MOSUNNY   88  69  53 E6        30.09F HX  92
MATTOON        SUNNY     88  61  40 VRB5      30.08F HX  88
PARIS*         SUNNY     88  67  49 SE3       30.09F HX  90
$$

ILZ079-100>102-242100-
SOUTHWEST ILLINOIS

CITY           SKY/WX    TMP DP  RH WIND       PRES   REMARKS
ALTON          MOSUNNY   88  66  48 VRB6      30.06F HX  90
BELLEVILLE     SUNNY     89  68  50 VRB2      30.04F HX  92
CAHOKIA*       MOSUNNY   89  65  44 SE7       30.04F HX  91
SPARTA*        MOSUNNY   87  67  51 CALM      30.07F HX  90
$$

ILZ064>066-069>071-074>076-080>082-084>086-088>090-092>094-242100-
SOUTH-CENTRAL ILLINOIS

CITY           SKY/WX    TMP DP  RH WIND       PRES   REMARKS
CARBONDALE     SUNNY     87  69  54 SW3       30.06F HX  91
CAIRO*         MOSUNNY   91  68  46 SE6       30.05F HX  95
EFFINGHAM*     SUNNY     88  65  45 S5        30.09F HX  89
MARION         PTSUNNY   90  68  48 S6        30.08F HX  93
MT. VERNON     SUNNY     88  66  48 N3        30.08F HX  90
CENTRALIA*     MOSUNNY   89  70  52 CALM      30.06F HX  94
SALEM*         MOSUNNY   90  65  44 S3        30.08F HX  92
METROPOLIS*    SUNNY     91  66  43 CALM      30.06F HX  94
$$

ILZ067-068-072-073-078-083-087-091-242100-
SOUTHEAST ILLINOIS

CITY           SKY/WX    TMP DP  RH WIND       PRES   REMARKS
LAWRENCEVILLE  SUNNY     89  64  43 S5        30.07F HX  90
FLORA*         MOSUNNY   90  66  45 NW5       30.07F HX  92
FAIRFIELD*     SUNNY     87  66  49 CALM      30.06F HX  89
HARRISBURG*    MOSUNNY   88  68  50 CALM      30.07F HX  91
ROBINSON*      PTSUNNY   86  65  49 CALM      30.09S HX  88
CARMI*         SUNNY     91  67  46 W6        30.06F HX  94
$$

ABBREVIATIONS USED IN REMARKS
   TC - TEMPERATURE IN CELSIUS
  WCI - WIND CHILL INDEX
   HX - HEAT INDEX
  VSB - VISIBILITY
$$





USA.gov is the U.S. government's official web portal to all federal, state and local government web resources and services.